THOR ABLESTAR DEB, 1522

Orbit data source: Space-Track

THOR ABLESTAR DEB, 1522 is space debris in LEO originally from a launch on Fri, 13 Aug 1965 UTC launched from the Air Force Western Test Range (AFWTR). Debris objects in space refer to the collection of defunct objects orbiting the Earth. Examples of debris include non-operational satellites, rocket bodies, and fragments generated from explosions, collisions, or faulty payload assembly.

Loading next visibility...
Identifier
1522, 1965-065L
Orbit
LEO
Country
Flag of USUS
Related business
Manufacturer
Unknown
Mission
Spacecraft
Bus & Motor
Unknown
Mass
Unknown
Launch date (UTC)
1965-08-13 (60 years ago)
Launch vehicle
Unknown
Launch site
Air Force Western Test Range (AFWTR)
Object type
Payload
Rocket body
Debris
Shape & HBR
Unknown shape, 0.4 m
Radar Cross Section
Medium (>0.1 m² and <1 m²)

Expand to show TLE details & history
Last TLE update: 4 hours ago

TLE from 4 hours ago
0 THOR ABLESTAR DEB
1  1522U 65065L   26034.19036713  .00000070  00000-0  12284-3 0  9994
2  1522  90.0778 125.5734 0069122 263.4913 123.6189 13.33845497941931
Epoch: 2026-02-03T04:34Z
TLE epoch observation values (Epoch: 2026-02-03T04:34:07.720Z)
Latitude
27.80434°
Longitude
-76.37444°
Altitude
1,164.74 km
Speed
7.259 km/s
True Right ascension
08h 22m 07s
True Declination
27° 40' 13"
Sunlit
Object was in full shadow at epoch
Visualization orbit readout
Latitude
Unknown
Longitude
Unknown
Altitude
Unknown
Speed
Unknown
Apparent Right ascension
Unknown
Apparent Declination
Unknown
Sunlit
N/A
Visualization observer readout
Local Sidereal Time
10:44:03
Azimuth
Unknown
Elevation
Unknown
Doppler factor
Unknown
Orbital elements
Apogee altitude
1,181.26 km
Perigee altitude
1,077.473 km
Semi-major axis
7,507.504 km
Eccentricity
0.00691
Inclination
90.0778°
RAAN
125.5734°
Arg. of periapsis
263.4913°
True anomaly
124.27534°
Mean anomaly
123.6189°
Eccentric anomaly
123.94743°
Mean motion
3.33657 °/min
Orbital period
107.9 mins
BSTAR
0.00012284
Loading maneuver chart data...
Computing Atmospheric mass density...
Loading historical data...
Loading historical data...
Loading historical data...
Loading historical data...
Loading historical data...
Loading historical data...
Loading historical data...

Documentation

Showing up to 5 results
|